This is the latest recevied weather packets stored in our database for station/object KF0JHJ. If no packets are shown the sender has not sent any weather packets the latest 10 day(s).
| Time | Temp. | Humidity | Pressure | Rain* | Wind** | Luminosity | Snow |
|---|---|---|---|---|---|---|---|
| 1777548170 | 1.11° C | 82% | 1016 hPa | - | - | 4 W/m² | - |
| 1777547867 | 1.11° C | 82% | 1016.2 hPa | - | - | 2 W/m² | - |
| 1777547563 | 0.56° C | 82% | 1015.9 hPa | - | - | 1 W/m² | - |
| 1777547261 | 1.11° C | 82% | 1015.9 hPa | - | - | 0 W/m² | - |
| 1777546958 | 1.11° C | 82% | 1016.1 hPa | - | - | 0 W/m² | - |
| 1777546655 | 1.11° C | 83% | 1015.9 hPa | - | - | 0 W/m² | - |
| 1777546351 | 1.11° C | 82% | 1015.9 hPa | - | - | 0 W/m² | - |
| 1777546048 | 1.11° C | 82% | 1016 hPa | - | - | 0 W/m² | - |
| 1777545744 | 1.11° C | 83% | 1015.8 hPa | - | - | 0 W/m² | - |
| 1777545442 | 1.11° C | 82% | 1015.9 hPa | - | - | 0 W/m² | - |
| 1777545139 | 1.11° C | 83% | 1016 hPa | - | - | 0 W/m² | - |
| 1777544836 | 1.67° C | 83% | 1016 hPa | - | - | 0 W/m² | - |
| 1777544532 | 1.67° C | 82% | 1016 hPa | - | - | 0 W/m² | - |
| 1777544228 | 1.67° C | 82% | 1015.6 hPa | - | - | 0 W/m² | - |
| 1777543926 | 1.67° C | 82% | 1015.8 hPa | - | - | 0 W/m² | - |
| 1777543622 | 1.67° C | 82% | 1015.9 hPa | - | - | 0 W/m² | - |
| 1777543318 | 1.67° C | 81% | 1015.8 hPa | - | - | 0 W/m² | - |
| 1777543014 | 1.67° C | 81% | 1015.8 hPa | - | - | 0 W/m² | - |
| 1777542710 | 1.67° C | 80% | 1016.1 hPa | - | - | 0 W/m² | - |
| 1777542407 | 2.22° C | 80% | 1015.9 hPa | - | - | 0 W/m² | - |
| 1777542103 | 1.67° C | 80% | 1015.7 hPa | - | - | 0 W/m² | - |
| 1777541801 | 2.22° C | 80% | 1015.8 hPa | - | - | 0 W/m² | - |
| 1777541498 | 2.22° C | 80% | 1015.7 hPa | - | - | 0 W/m² | - |
| 1777541194 | 2.22° C | 79% | 1015.8 hPa | - | - | 0 W/m² | - |
| 1777540890 | 2.78° C | 79% | 1016 hPa | - | - | 0 W/m² | - |
* Rain since midnight (hover to see other rain measurements)
** Current wind speed in m/s (hover to see current wind gust speed)